Cold Bay, AK

9:08 AM AKST on December 02, 2016 (GMT -0900)
Cold Bay

Weather History for PACD - March, 2013

Change the Weather History Date:

Monday, March 25, 2013

  Actual Average Record
Temperature  
Mean Temperature 22 °F 31 °F  
Max Temperature 28 °F 36 °F 47 °F (1963)
Min Temperature 16 °F 25 °F 2 °F (1956)
Degree Days  
Heating Degree Days 43 35  
Month to date heating degree days 870 875  
Since 1 July heating degree days 7284 7099  
Cooling Degree Days 0    
Month to date cooling degree days 0  
Year to date cooling degree days 0  
Moisture  
Dew Point 16 °F    
Average Humidity 77    
Maximum Humidity 93    
Minimum Humidity 51    
Precipitation  
Precipitation 0.00 in 0.07 in 0.74 in (1991)
Month to date precipitation 2.09 2.23  
Year to date precipitation 9.03 8.37  
Snow  
Snow 0.00 in 0.40 in 4.90 in (2012)
Month to date snowfall 6.0 10.7  
Since 1 July snowfall 57.8 62.9  
Snow Depth T in    
Sea Level Pressure  
Sea Level Pressure 30.04 in    
Wind  
Wind Speed 4 mph (NNE)    
Max Wind Speed 18 mph    
Max Gust Speed 21 mph    
Visibility 8 miles    
Events Snow    
T = Trace of Precipitation, MM = Missing Value Source: NWS Daily Summary

Daily Weather History Graph

Daily Weather History Graph

Search for Another Location

Airport or City:

Trip Planner

Search our weather history database for the weather conditions in past years. The results will help you decide how hot, cold, wet, or windy it might be!

Date:

Astronomy

Mar. 25, 2013 Rise Set
Actual Time 8:38 AM AKDT 9:15 PM AKDT
Civil Twilight 8:02 AM AKDT 9:52 PM AKDT
Nautical Twilight 7:18 AM AKDT 10:36 PM AKDT
Astronomical Twilight 6:31 AM AKDT 11:24 PM AKDT
Moon 7:53 PM AKDT (3/25) 7:40 AM AKDT (3/25)
Length of Visible Light 13h 49m
Length of Day
12h 36m
Waxing Gibbous, 97% of the Moon is Illuminated
Mar 25
Waxing Gibbous
Mar 27
Full
Apr 2
Last Quarter
Apr 10
New
Apr 18
First Quarter

Hourly Weather History & Observations

Time (AKDT) Temp. Windchill Dew Point Humidity Pressure Visibility Wind Dir Wind Speed Gust Speed Precip Events Conditions
12:17 AM 17.6 °F - 12.2 °F 79% 30.17 in 10.0 mi Calm Calm - N/A   Scattered Clouds
12:44 AM 19.4 °F - 12.2 °F 74% 30.16 in 10.0 mi Calm Calm - N/A   Mostly Cloudy
12:53 AM 19.0 °F - 12.9 °F 77% 30.17 in 10.0 mi Calm Calm - N/A   Mostly Cloudy
1:26 AM 19.4 °F - 12.2 °F 74% 30.15 in 10.0 mi Calm Calm - N/A   Scattered Clouds
1:51 AM 19.4 °F - 12.2 °F 74% 30.15 in 10.0 mi Calm Calm - N/A   Mostly Cloudy
1:53 AM 19.0 °F - 12.9 °F 77% 30.16 in 10.0 mi Calm Calm - N/A   Mostly Cloudy
2:41 AM 17.6 °F - 12.2 °F 79% 30.13 in 10.0 mi Calm Calm - N/A   Scattered Clouds
2:53 AM 17.1 °F - 12.0 °F 81% 30.13 in 10.0 mi Calm Calm - N/A   Partly Cloudy
3:14 AM 17.6 °F - 12.2 °F 79% 30.13 in 10.0 mi Calm Calm - N/A   Mostly Cloudy
3:45 AM 15.8 °F - 12.2 °F 86% 30.12 in 10.0 mi Calm Calm - N/A   Partly Cloudy
3:53 AM 16.0 °F - 10.9 °F 81% 30.12 in 10.0 mi Calm Calm - N/A   Partly Cloudy
4:23 AM 15.8 °F - 10.4 °F 79% 30.12 in 10.0 mi Calm Calm - N/A   Mostly Cloudy
4:53 AM 16.0 °F - 12.0 °F 84% 30.12 in 10.0 mi Calm Calm - N/A   Overcast
5:53 AM 17.1 °F - 12.0 °F 81% 30.11 in 10.0 mi Calm Calm - N/A   Overcast
6:53 AM 19.0 °F 12.3 °F 14.0 °F 81% 30.09 in 10.0 mi NNE 4.6 mph - N/A   Mostly Cloudy
7:53 AM 21.9 °F 15.7 °F 15.1 °F 75% 30.08 in 10.0 mi NNE 4.6 mph - N/A   Overcast
8:42 AM 21.2 °F 14.9 °F 15.8 °F 80% 30.06 in 10.0 mi NE 4.6 mph - N/A   Mostly Cloudy
8:53 AM 23.0 °F 17.0 °F 15.1 °F 72% 30.07 in 10.0 mi NE 4.6 mph - N/A   Mostly Cloudy
9:53 AM 24.1 °F 18.2 °F 16.0 °F 71% 30.07 in 10.0 mi NNE 4.6 mph - N/A   Partly Cloudy
10:35 AM 24.8 °F 16.9 °F 15.8 °F 69% 30.06 in 10.0 mi NNE 6.9 mph - N/A   Overcast
10:53 AM 24.1 °F 14.4 °F 16.0 °F 71% 30.07 in 10.0 mi NNE 9.2 mph - N/A   Overcast
11:53 AM 24.1 °F 12.5 °F 16.0 °F 71% 30.06 in 10.0 mi NNE 12.7 mph - N/A   Overcast
12:46 PM 24.8 °F 13.4 °F 15.8 °F 69% 30.06 in 10.0 mi NE 12.7 mph - N/A   Mostly Cloudy
12:53 PM 24.1 °F 13.1 °F 16.0 °F 71% 30.06 in 10.0 mi NNE 11.5 mph - N/A   Overcast
1:17 PM 24.8 °F 14.0 °F 15.8 °F 69% 30.05 in 10.0 mi NNE 11.5 mph - N/A   Overcast
1:53 PM 25.0 °F 13.1 °F 16.0 °F 69% 30.05 in 10.0 mi NNE 13.8 mph - N/A   Overcast
2:53 PM 26.1 °F 13.6 °F 16.0 °F 66% 30.03 in 10.0 mi NE 16.1 mph - N/A   Mostly Cloudy
3:53 PM 27.0 °F 19.5 °F 16.0 °F 63% 30.01 in 10.0 mi East 6.9 mph - N/A   Overcast
4:53 PM 28.0 °F 19.3 °F 17.1 °F 63% 29.99 in 4.0 mi NNE 9.2 mph - 0.00 in Snow Light Snow
5:53 PM 28.0 °F 18.6 °F 18.0 °F 66% 29.97 in 10.0 mi NNE 10.4 mph - 0.00 in   Overcast
6:53 PM 25.0 °F 13.1 °F 17.1 °F 72% 29.97 in 10.0 mi North 13.8 mph - N/A   Overcast
7:53 PM 25.0 °F 13.6 °F 18.0 °F 75% 29.96 in 5.0 mi NNE 12.7 mph - 0.00 in Snow Light Snow
8:20 PM 24.8 °F 14.0 °F 17.6 °F 74% 29.96 in 2.5 mi NNE 11.5 mph - 0.00 in Snow Light Snow
8:30 PM 23.0 °F 11.1 °F 17.6 °F 80% 29.95 in 1.0 mi NNE 12.7 mph - 0.00 in Snow Light Snow
8:53 PM 23.0 °F 11.7 °F 19.0 °F 85% 29.96 in 1.8 mi NNE 11.5 mph - 0.01 in Snow Light Snow
9:00 PM 23.0 °F 10.6 °F 17.6 °F 80% 29.95 in 2.0 mi NNE 13.8 mph - 0.00 in Snow Light Snow
9:13 PM 23.0 °F 11.7 °F 19.4 °F 86% 29.95 in 2.0 mi NNE 11.5 mph - 0.00 in Snow Light Snow
9:41 PM 21.2 °F 10.1 °F 19.4 °F 93% 29.95 in 1.8 mi NNE 10.4 mph - 0.01 in Snow Light Snow
9:53 PM 21.9 °F 9.8 °F 19.0 °F 89% 29.96 in 2.0 mi NNE 12.7 mph - 0.01 in Snow Light Snow
10:13 PM 23.0 °F 11.7 °F 19.4 °F 86% 29.95 in 3.0 mi NNE 11.5 mph - 0.00 in Snow Light Snow
10:20 PM 21.2 °F 9.5 °F 19.4 °F 93% 29.95 in 4.0 mi NNE 11.5 mph - 0.00 in Snow Light Snow
10:30 PM 23.0 °F 11.7 °F 19.4 °F 86% 29.95 in 7.0 mi NNE 11.5 mph - 0.00 in Snow Light Snow
10:39 PM 23.0 °F 11.7 °F 19.4 °F 86% 29.95 in 6.0 mi NNE 11.5 mph - 0.00 in Snow Light Snow
10:53 PM 23.0 °F 13.1 °F 19.0 °F 85% 29.95 in 4.0 mi North 9.2 mph - 0.01 in Snow Light Snow
11:42 PM 23.0 °F 11.7 °F 19.4 °F 86% 29.94 in 1.8 mi NNE 11.5 mph - 0.00 in Snow Light Snow
11:53 PM 23.0 °F 11.7 °F 19.0 °F 85% 29.94 in 2.0 mi NNE 11.5 mph - 0.01 in Snow Light Snow